Weather History for Crookston, MN

Change the Weather History Date:

Thursday, May 23, 2013

  Actual Average Record
Temperature  
Mean Temperature 55 °F -  
Max Temperature 66 °F 64 °F 89 °F (2006)
Min Temperature 44 °F 42 °F 35 °F (2002)
Degree Days  
Heating Degree Days 10    
Growing Degree Days 5 (Base 50)    
Moisture  
Dew Point 32 °F    
Average Humidity 45    
Maximum Humidity 76    
Minimum Humidity 22    
Precipitation  
Precipitation 0.00 in - - ()
Sea Level Pressure  
Sea Level Pressure 30.29 in    
Wind  
Wind Speed 8 mph (East)    
Max Wind Speed 13 mph    
Max Gust Speed 20 mph    
Visibility 10 miles    
Events      
Averages and records for this station are not official NWS values.
T = Trace of Precipitation, MM = Missing Value Source: NWS Daily Summary

Daily Weather History Graph

Daily Weather History Graph

Search for Another Location

Airport:

Trip Planner

Search our weather history database for the weather conditions in past years. The results will help you decide how hot, cold, wet, or windy it might be!

Date:

Astronomy

May. 23, 2013 Rise Set
Actual Time 5:38 AM CDT 9:08 PM CDT
Civil Twilight 5:00 AM CDT 9:46 PM CDT
Nautical Twilight 4:09 AM CDT 10:37 PM CDT
Astronomical Twilight 3:02 AM CDT 11:46 PM CDT
Moon 7:36 PM CDT (5/23) 4:32 AM CDT (5/23)
Length of Visible Light 16h 45m
Length of Day
15h 29m
Waxing Gibbous, 97% of the Moon is Illuminated
May 23
Waxing Gibbous
May 24
Full
May 31
Last Quarter
Jun 8
New
Jun 16
First Quarter

Hourly Weather History & Observations

Time (CDT) Temp. Windchill Dew Point Humidity Pressure Visibility Wind Dir Wind Speed Gust Speed Precip Events Conditions
12:15 AM 53.6 °F - 41.0 °F 62% 30.16 in 10.0 mi ENE 8.1 mph - N/A   Clear
12:34 AM 53.6 °F - 41.0 °F 62% 30.16 in 10.0 mi ENE 8.1 mph - N/A   Clear
12:54 AM 53.6 °F - 41.0 °F 62% 30.17 in 10.0 mi ENE 6.9 mph - N/A   Clear
1:15 AM 51.8 °F - 39.2 °F 62% 30.18 in 10.0 mi ENE 6.9 mph - N/A   Clear
1:34 AM 51.8 °F - 39.2 °F 62% 30.19 in 10.0 mi ENE 8.1 mph - N/A   Clear
1:54 AM 50.0 °F - 39.2 °F 66% 30.19 in 10.0 mi ENE 9.2 mph - N/A   Clear
2:15 AM 50.0 °F - 39.2 °F 66% 30.20 in 10.0 mi ENE 9.2 mph - N/A   Clear
2:34 AM 50.0 °F - 39.2 °F 66% 30.21 in 10.0 mi ENE 9.2 mph - N/A   Clear
2:55 AM 48.2 °F - 39.2 °F 71% 30.22 in 10.0 mi ENE 8.1 mph - N/A   Clear
3:15 AM 48.2 °F - 39.2 °F 71% 30.23 in 10.0 mi ENE 6.9 mph - N/A   Clear
3:34 AM 48.2 °F - 39.2 °F 71% 30.23 in 10.0 mi ENE 6.9 mph - N/A   Clear
3:55 AM 46.4 °F 42.9 °F 39.2 °F 76% 30.24 in 10.0 mi ENE 6.9 mph - N/A   Clear
4:15 AM 46.4 °F 42.9 °F 37.4 °F 71% 30.25 in 10.0 mi ENE 6.9 mph - N/A   Clear
4:34 AM 46.4 °F 42.9 °F 37.4 °F 71% 30.26 in 10.0 mi ENE 6.9 mph - N/A   Clear
4:55 AM 46.4 °F 42.9 °F 37.4 °F 71% 30.27 in 10.0 mi ENE 6.9 mph - N/A   Clear
5:14 AM 44.6 °F 40.7 °F 37.4 °F 76% 30.28 in 10.0 mi East 6.9 mph - N/A   Clear
5:34 AM 44.6 °F 40.7 °F 37.4 °F 76% 30.28 in 10.0 mi East 6.9 mph - N/A   Clear
5:55 AM 44.6 °F 40.2 °F 37.4 °F 76% 30.29 in 10.0 mi ENE 8.1 mph - N/A   Clear
6:14 AM 44.6 °F 40.2 °F 37.4 °F 76% 30.30 in 10.0 mi ENE 8.1 mph - N/A   Clear
6:34 AM 44.6 °F 39.2 °F 35.6 °F 71% 30.30 in 10.0 mi East 10.4 mph - N/A   Clear
6:55 AM 46.4 °F 41.9 °F 35.6 °F 66% 30.31 in 10.0 mi East 9.2 mph - N/A   Clear
7:14 AM 46.4 °F 41.1 °F 35.6 °F 66% 30.31 in 10.0 mi East 11.5 mph - N/A   Clear
7:34 AM 46.4 °F 41.1 °F 35.6 °F 66% 30.32 in 10.0 mi East 11.5 mph - N/A   Clear
7:55 AM 48.2 °F - 35.6 °F 62% 30.33 in 10.0 mi East 10.4 mph - N/A   Clear
8:14 AM 50.0 °F - 35.6 °F 58% 30.33 in 10.0 mi East 11.5 mph - N/A   Clear
8:35 AM 50.0 °F - 33.8 °F 54% 30.33 in 10.0 mi East 11.5 mph 19.6 mph N/A   Clear
8:55 AM 51.8 °F - 35.6 °F 54% 30.34 in 10.0 mi East 12.7 mph - N/A   Clear
9:14 AM 51.8 °F - 35.6 °F 54% 30.34 in 10.0 mi East 12.7 mph 17.3 mph N/A   Clear
9:35 AM 53.6 °F - 35.6 °F 51% 30.34 in 10.0 mi East 9.2 mph - N/A   Clear
9:54 AM 55.4 °F - 33.8 °F 44% 30.34 in 10.0 mi East 8.1 mph - N/A   Clear
10:14 AM 55.4 °F - 33.8 °F 44% 30.34 in 10.0 mi East 8.1 mph - N/A   Clear
10:35 AM 57.2 °F - 32.0 °F 38% 30.34 in 10.0 mi East 9.2 mph - N/A   Clear
10:54 AM 57.2 °F - 30.2 °F 36% 30.34 in 10.0 mi ENE 10.4 mph - N/A   Clear
11:14 AM 57.2 °F - 32.0 °F 38% 30.34 in 10.0 mi ENE 10.4 mph 16.1 mph N/A   Clear
11:35 AM 57.2 °F - 30.2 °F 36% 30.34 in 10.0 mi ENE 10.4 mph - N/A   Clear
11:54 AM 59.0 °F - 30.2 °F 34% 30.34 in 10.0 mi ENE 10.4 mph - N/A   Clear
12:14 PM 59.0 °F - 28.4 °F 31% 30.34 in 10.0 mi ENE 10.4 mph 17.3 mph N/A   Clear
12:35 PM 60.8 °F - 30.2 °F 31% 30.34 in 10.0 mi East 10.4 mph 18.4 mph N/A   Clear
12:54 PM 60.8 °F - 28.4 °F 29% 30.34 in 10.0 mi East 6.9 mph 16.1 mph N/A   Clear
1:14 PM 60.8 °F - 28.4 °F 29% 30.34 in 10.0 mi East 12.7 mph 19.6 mph N/A   Clear
1:35 PM 60.8 °F - 28.4 °F 29% 30.34 in 10.0 mi East 8.1 mph - N/A   Clear
1:54 PM 60.8 °F - 26.6 °F 27% 30.33 in 10.0 mi ESE 12.7 mph - N/A   Clear
2:15 PM 60.8 °F - 28.4 °F 29% 30.33 in 10.0 mi ENE 4.6 mph 17.3 mph N/A   Clear
2:34 PM 62.6 °F - 28.4 °F 27% 30.32 in 10.0 mi East 8.1 mph - N/A   Clear
2:54 PM 62.6 °F - 28.4 °F 27% 30.32 in 10.0 mi ESE 6.9 mph - N/A   Clear
3:15 PM 64.4 °F - 30.2 °F 28% 30.32 in 10.0 mi East 10.4 mph - N/A   Clear
3:34 PM 64.4 °F - 30.2 °F 28% 30.31 in 10.0 mi East 9.2 mph - N/A   Clear
3:54 PM 64.4 °F - 28.4 °F 26% 30.31 in 10.0 mi East 10.4 mph - N/A   Clear
4:15 PM 64.4 °F - 28.4 °F 26% 30.30 in 10.0 mi East 3.5 mph - N/A   Clear
4:34 PM 64.4 °F - 28.4 °F 26% 30.30 in 10.0 mi ESE 8.1 mph - N/A   Clear
4:54 PM 64.4 °F - 28.4 °F 26% 30.30 in 10.0 mi East 9.2 mph - N/A   Clear
5:15 PM 64.4 °F - 28.4 °F 26% 30.29 in 10.0 mi ESE 8.1 mph - N/A   Clear
5:34 PM 64.4 °F - 30.2 °F 28% 30.29 in 10.0 mi SE 6.9 mph - N/A   Clear
5:54 PM 64.4 °F - 30.2 °F 28% 30.29 in 10.0 mi SSE 8.1 mph - N/A   Clear
6:14 PM 66.2 °F - 28.4 °F 24% 30.28 in 10.0 mi SE 11.5 mph 16.1 mph N/A   Clear
6:34 PM 64.4 °F - 28.4 °F 26% 30.28 in 10.0 mi SE 9.2 mph - N/A   Clear
6:55 PM 64.4 °F - 26.6 °F 24% 30.28 in 10.0 mi SE 11.5 mph - N/A   Clear
7:14 PM 64.4 °F - 24.8 °F 22% 30.28 in 10.0 mi ESE 10.4 mph - N/A   Clear
7:34 PM 64.4 °F - 26.6 °F 24% 30.27 in 10.0 mi ESE 8.1 mph - N/A   Clear
7:55 PM 62.6 °F - 26.6 °F 26% 30.27 in 10.0 mi ESE 8.1 mph - N/A   Clear
8:14 PM 62.6 °F - 24.8 °F 24% 30.27 in 10.0 mi ESE 6.9 mph - N/A   Clear
8:34 PM 60.8 °F - 24.8 °F 25% 30.27 in 10.0 mi East 5.8 mph - N/A   Clear
8:55 PM 60.8 °F - 26.6 °F 27% 30.27 in 10.0 mi East 5.8 mph - N/A   Clear
9:14 PM 57.2 °F - 26.6 °F 31% 30.27 in 10.0 mi East 5.8 mph - N/A   Clear
9:34 PM 57.2 °F - 28.4 °F 33% 30.27 in 10.0 mi East 5.8 mph - N/A   Clear
9:55 PM 55.4 °F - 28.4 °F 36% 30.28 in 10.0 mi East 5.8 mph - N/A   Clear
10:14 PM 55.4 °F - 28.4 °F 36% 30.29 in 10.0 mi East 5.8 mph - N/A   Clear
10:34 PM 55.4 °F - 28.4 °F 36% 30.29 in 10.0 mi East 6.9 mph - N/A   Clear
10:55 PM 53.6 °F - 30.2 °F 41% 30.30 in 10.0 mi ESE 5.8 mph - N/A   Clear
11:14 PM 53.6 °F - 30.2 °F 41% 30.29 in 10.0 mi ESE 8.1 mph - N/A   Clear
11:34 PM 53.6 °F - 30.2 °F 41% 30.29 in 10.0 mi ESE 9.2 mph - N/A   Clear
11:55 PM 53.6 °F - 32.0 °F 44% 30.29 in 10.0 mi ESE 9.2 mph - N/A   Clear